| time (UTC) | temp F | wind direction | speed MPH | gust MPH | rain 1hr in | rain 24hr in | rain mn in | humidity % | barometer mb |
| 20260901071600 | 68 | 0 | 0.0 | 0.0 | 0.00 | 0.00 | 0.00 | 100 | 1021.7 |
| 20260901070109 | 68 | 0 | 0.0 | 0.0 | 0.00 | 0.00 | 0.00 | 100 | 1021.9 |
| 20260901064559 | 68 | 0 | 0.0 | 0.0 | 0.00 | 0.00 | 0.00 | 100 | 1021.9 |
| 20260901063057 | 68 | 0 | 0.0 | 0.0 | 0.00 | 0.00 | 0.00 | 99 | 1021.9 |
| 20260901061604 | 69 | 0 | 0.0 | 0.0 | 0.00 | 0.00 | 0.00 | 99 | 1022.0 |
| 20260901054555 | 69 | 0 | 0.0 | 0.0 | 0.00 | 0.00 | 0.00 | 99 | 1022.2 |
| 20260901053056 | 69 | 0 | 0.0 | 0.0 | 0.00 | 0.00 | 0.00 | 99 | 1022.2 |
| 20260901051603 | 69 | 0 | 0.0 | 0.0 | 0.00 | 0.00 | 0.00 | 99 | 1022.1 |
| 20260901050057 | 69 | 0 | 0.0 | 0.0 | 0.00 | 0.00 | 0.00 | 98 | 1022.2 |
| 20260901044556 | 70 | 0 | 0.0 | 0.0 | 0.00 | 0.00 | 0.00 | 98 | 1022.2 |
| 20260901043102 | 70 | 0 | 0.0 | 0.0 | 0.00 | 0.00 | 0.00 | 98 | 1022.2 |
| 20260901041615 | 70 | 0 | 0.0 | 0.0 | 0.00 | 0.00 | 0.00 | 98 | 1022.2 |
| 20260901040110 | 70 | 0 | 0.0 | 0.0 | 0.00 | 0.00 | 0.00 | 98 | 1022.2 |
| 20260901034608 | 70 | 0 | 0.0 | 0.0 | 0.00 | 0.00 | 0.00 | 97 | 1022.2 |
| 20260901033057 | 71 | 0 | 0.0 | 0.0 | 0.00 | 0.00 | 0.00 | 97 | 1022.1 |
| 20260901031601 | 71 | 0 | 0.0 | 0.0 | 0.00 | 0.00 | 0.00 | 97 | 1022.1 |
| 20260901030100 | 71 | 0 | 0.0 | 0.0 | 0.00 | 0.00 | 0.00 | 97 | 1022.2 |
| 20260901024557 | 72 | 0 | 0.0 | 0.0 | 0.00 | 0.00 | 0.00 | 97 | 1022.2 |
| 20260901023102 | 72 | 0 | 0.0 | 0.0 | 0.00 | 0.00 | 0.00 | 97 | 1022.2 |
| 20260901021602 | 72 | 0 | 0.0 | 0.0 | 0.00 | 0.00 | 0.00 | 96 | 1022.2 |
| 20260901020100 | 73 | 0 | 0.0 | 0.0 | 0.00 | 0.00 | 0.00 | 96 | 1022.0 |
| 20260901014610 | 73 | 0 | 0.0 | 0.0 | 0.00 | 0.00 | 0.00 | 95 | 1021.9 |
| 20260901013107 | 74 | 0 | 0.0 | 0.0 | 0.00 | 0.00 | 0.00 | 95 | 1021.7 |
| 20260901011558 | 74 | 0 | 0.0 | 1.0 | 0.00 | 0.00 | 0.00 | 94 | 1021.5 |
| 20260901010108 | 75 | 0 | 0.0 | 1.0 | 0.00 | 0.00 | 0.00 | 94 | 1021.3 |
| 20260901004611 | 76 | 0 | 0.0 | 0.0 | 0.00 | 0.00 | 0.00 | 93 | 1021.1 |
| 20260901003100 | 77 | 0 | 0.0 | 0.0 | 0.00 | 0.00 | 0.00 | 93 | 1021.0 |
| 20260901001557 | 77 | 0 | 0.0 | 0.0 | 0.00 | 0.00 | 0.00 | 92 | 1021.0 |
| 20260831234602 | 79 | 0 | 0.0 | 0.0 | 0.00 | 0.00 | 0.00 | 88 | 1020.9 |
| 20260831233057 | 81 | 0 | 0.0 | 0.0 | 0.00 | 0.00 | 0.00 | 86 | 1020.8 |
| 20260831231612 | 82 | 0 | 0.0 | 0.0 | 0.00 | 0.00 | 0.00 | 82 | 1020.9 |
| 20260831224557 | 85 | 0 | 0.0 | 1.0 | 0.00 | 0.00 | 0.00 | 72 | 1021.1 |
| 20260831223055 | 86 | 0 | 0.0 | 0.0 | 0.00 | 0.00 | 0.00 | 66 | 1021.1 |
| 20260831221602 | 86 | 0 | 0.0 | 2.0 | 0.00 | 0.00 | 0.00 | 66 | 1021.2 |
| 20260831214612 | 87 | 0 | 0.0 | 2.0 | 0.00 | 0.00 | 0.00 | 65 | 1021.4 |
| 20260831213057 | 87 | 0 | 0.0 | 1.0 | 0.00 | 0.00 | 0.00 | 60 | 1021.3 |
| 20260831211600 | 87 | 0 | 0.0 | 0.0 | 0.00 | 0.00 | 0.00 | 59 | 1021.4 |
| 20260831210056 | 88 | 0 | 0.0 | 1.0 | 0.00 | 0.00 | 0.00 | 64 | 1021.5 |
| 20260831204555 | 88 | 0 | 0.0 | 0.0 | 0.00 | 0.00 | 0.00 | 62 | 1021.7 |
| 20260831203102 | 88 | 0 | 0.0 | 4.0 | 0.00 | 0.00 | 0.00 | 62 | 1021.8 |
| 20260831201557 | 88 | 0 | 0.0 | 1.0 | 0.00 | 0.00 | 0.00 | 62 | 1021.9 |
| 20260831200057 | 88 | 0 | 0.0 | 2.0 | 0.00 | 0.00 | 0.00 | 61 | 1022.2 |
| 20260831194624 | 88 | 141 | 0.0 | 5.0 | 0.00 | 0.00 | 0.00 | 63 | 1022.3 |
| 20260831193106 | 88 | 0 | 0.0 | 1.0 | 0.00 | 0.00 | 0.00 | 63 | 1022.4 |
| 20260831191556 | 88 | 0 | 0.0 | 3.0 | 0.00 | 0.00 | 0.00 | 60 | 1022.6 |
| 20260831190059 | 88 | 0 | 0.0 | 3.0 | 0.00 | 0.00 | 0.00 | 62 | 1022.7 |
| 20260831184601 | 88 | 0 | 1.0 | 4.0 | 0.00 | 0.00 | 0.00 | 61 | 1023.0 |
| 20260831183056 | 88 | 0 | 0.0 | 2.0 | 0.00 | 0.00 | 0.00 | 65 | 1023.0 |
| 20260831181556 | 88 | 113 | 1.0 | 4.0 | 0.00 | 0.00 | 0.00 | 61 | 1023.1 |
| 20260831180056 | 87 | 0 | 0.0 | 4.0 | 0.00 | 0.00 | 0.00 | 69 | 1023.4 |
| 20260831174559 | 87 | 0 | 0.0 | 1.0 | 0.00 | 0.00 | 0.00 | 68 | 1023.4 |
| 20260831173058 | 86 | 117 | 0.0 | 7.0 | 0.00 | 0.00 | 0.00 | 68 | 1023.7 |
| 20260831171558 | 86 | 0 | 0.0 | 6.0 | 0.00 | 0.00 | 0.00 | 66 | 1023.7 |
| 20260831164612 | 85 | 145 | 1.0 | 3.0 | 0.00 | 0.00 | 0.00 | 68 | 1024.0 |
| 20260831163104 | 85 | 0 | 0.0 | 0.0 | 0.00 | 0.00 | 0.00 | 71 | 1024.1 |
| 20260831161608 | 85 | 0 | 1.0 | 2.0 | 0.00 | 0.00 | 0.00 | 70 | 1024.2 |
| 20260831160059 | 85 | 139 | 0.0 | 1.0 | 0.00 | 0.00 | 0.00 | 76 | 1024.3 |
| 20260831154617 | 83 | 0 | 0.0 | 1.0 | 0.00 | 0.00 | 0.00 | 80 | 1024.4 |
| 20260831153055 | 82 | 0 | 0.0 | 0.0 | 0.00 | 0.00 | 0.00 | 83 | 1024.5 |
| 20260831151600 | 82 | 0 | 0.0 | 0.0 | 0.00 | 0.00 | 0.00 | 81 | 1024.5 |
| 20260831150058 | 84 | 0 | 0.0 | 0.0 | 0.00 | 0.00 | 0.00 | 78 | 1024.6 |
| 20260831144603 | 84 | 0 | 0.0 | 1.0 | 0.00 | 0.00 | 0.00 | 80 | 1024.4 |
| 20260831143108 | 83 | 0 | 0.0 | 3.0 | 0.00 | 0.00 | 0.00 | 79 | 1024.4 |
| 20260831141558 | 83 | 162 | 0.0 | 2.0 | 0.00 | 0.00 | 0.00 | 80 | 1024.2 |
| 20260831140056 | 82 | 0 | 0.0 | 0.0 | 0.00 | 0.00 | 0.00 | 81 | 1024.2 |
| 20260831134551 | 82 | 0 | 0.0 | 0.0 | 0.00 | 0.00 | 0.00 | 81 | 1024.2 |
| 20260831133057 | 79 | 0 | 0.0 | 0.0 | 0.00 | 0.00 | 0.00 | 86 | 1024.2 |
| 20260831131558 | 77 | 0 | 0.0 | 2.0 | 0.00 | 0.00 | 0.00 | 87 | 1024.4 |
| 20260831130121 | 77 | 0 | 0.0 | 3.0 | 0.00 | 0.00 | 0.00 | 87 | 1024.2 |
| 20260831124556 | 76 | 0 | 0.0 | 1.0 | 0.00 | 0.00 | 0.00 | 89 | 1024.0 |
| 20260831123058 | 74 | 0 | 0.0 | 0.0 | 0.00 | 0.00 | 0.00 | 93 | 1023.9 |
| 20260831121551 | 71 | 0 | 0.0 | 0.0 | 0.00 | 0.00 | 0.00 | 99 | 1023.8 |
| 20260831120100 | 69 | 0 | 0.0 | 0.0 | 0.00 | 0.00 | 0.00 | 99 | 1023.7 |
| 20260831114557 | 69 | 0 | 0.0 | 0.0 | 0.00 | 0.00 | 0.00 | 99 | 1023.6 |
| 20260831113104 | 69 | 0 | 0.0 | 0.0 | 0.00 | 0.00 | 0.00 | 98 | 1023.4 |
| 20260831111601 | 69 | 0 | 0.0 | 0.0 | 0.00 | 0.00 | 0.00 | 97 | 1023.2 |
| 20260831110105 | 70 | 0 | 0.0 | 0.0 | 0.00 | 0.00 | 0.00 | 96 | 1022.9 |
| 20260831104600 | 70 | 0 | 0.0 | 0.0 | 0.00 | 0.00 | 0.00 | 95 | 1022.9 |
| 20260831103057 | 71 | 0 | 0.0 | 0.0 | 0.00 | 0.00 | 0.00 | 95 | 1022.7 |
| 20260831101554 | 72 | 0 | 0.0 | 0.0 | 0.00 | 0.00 | 0.00 | 93 | 1022.7 |
| 20260831100100 | 73 | 0 | 0.0 | 0.0 | 0.00 | 0.00 | 0.00 | 92 | 1022.6 |
| 20260831094556 | 73 | 134 | 0.0 | 1.0 | 0.00 | 0.00 | 0.00 | 91 | 1022.6 |
| 20260831093059 | 73 | 0 | 0.0 | 1.0 | 0.00 | 0.00 | 0.00 | 91 | 1022.6 |
| 20260831091609 | 73 | 0 | 0.0 | 1.0 | 0.00 | 0.00 | 0.00 | 91 | 1022.5 |
| 20260831090057 | 72 | 0 | 0.0 | 1.0 | 0.00 | 0.00 | 0.00 | 92 | 1022.4 |
| 20260831084556 | 71 | 0 | 0.0 | 3.0 | 0.00 | 0.00 | 0.00 | 95 | 1022.4 |
| 20260831083104 | 70 | 0 | 0.0 | 0.0 | 0.00 | 0.00 | 0.00 | 98 | 1022.3 |
| 20260831081558 | 69 | 0 | 0.0 | 0.0 | 0.00 | 0.00 | 0.00 | 98 | 1022.2 |
| 20260831080058 | 69 | 0 | 0.0 | 0.0 | 0.00 | 0.00 | 0.00 | 98 | 1022.2 |
| 20260831074557 | 69 | 0 | 0.0 | 0.0 | 0.00 | 0.00 | 0.00 | 98 | 1022.1 |
| 20260831073111 | 69 | 0 | 0.0 | 0.0 | 0.00 | 0.00 | 0.00 | 98 | 1022.2 |